Terminal Aerodrome Forecast
Issued by NWS

Home | Current Version | Previous Version | Text Only | Print | Product List | Glossary On
Versions: 1 2 3 4 5 6 7 8 9 10 11 12
000
FTUS46 KSGX 182300
TAFPSP
TAF
KPSP 182340Z 1900/1924 21009KT P6SM SCT035 BKN120
     FM190200 33008KT P6SM BKN120
     FM190500 VRB06KT P6SM SCT150=

USA.gov is the U.S. government's official web portal to all federal, state and local government web resources and services.